Flight Track Log - Related Links

Times and Time Zones

All times are in EDT time to prevent confusion due to time zone crossing. See the RPA4937 flight status page for this flight to view local times or setup timezone preferences in your user account.

Time Position Orientation Groundspeed Altitude Reporting Facility
EDT Latitude Longitude Course Direction KTS MPH feet Rate Location/Type
Thu 07:23:48 AM 39.1667 -76.6333 38° Northeast 162 186 1,200  Level Potomac TRACON
Thu 07:24:48 AM 39.1667 -76.5833 90° East 182 209 4,000 2,817 Climbing Potomac TRACON
Thu 07:25:43 AM 39.1667 -76.5167 90° East 188 216 6,600 2,752 Climbing Potomac TRACON
Thu 07:26:00 AM 39.1500 -76.3034 90° East  Level FlightAware
Thu 07:26:37 AM 39.1833 -76.4500 72° East 197 227 9,000  Level Potomac TRACON
Thu 07:27:00 AM 39.1696 -76.1905 46° Northeast  Level FlightAware
Thu 07:27:37 AM 39.1833 -76.3833 90° East 218 251 11,000  Level Potomac TRACON
Thu 07:28:00 AM 39.2410 -76.1090 38° Northeast  Level FlightAware
Thu 07:28:25 AM 39.2000 -76.3000 76° East 285 328 11,100  Level Potomac TRACON
Thu 07:29:31 AM 39.2667 -76.2167 44° Northeast 317 365 11,000  Descending Potomac TRACON
Thu 07:31:02 AM 39.3500 -76.1000 47° Northeast 309 356 11,100  Climbing Philadelphia TRACON
Thu 07:32:02 AM 39.4167 -76.0167 44° Northeast 308 354 11,000 -56 Descending Philadelphia TRACON
Thu 07:32:50 AM 39.4500 -75.9500 57° Northeast 308 354 11,000  Level Philadelphia TRACON
Thu 07:33:50 AM 39.5167 -75.8500 49° Northeast 308 354 11,000  Level Philadelphia TRACON
Thu 07:34:50 AM 39.5667 -75.7833 46° Northeast 308 354 11,000  Level Philadelphia TRACON
Thu 07:35:57 AM 39.6333 -75.6833 49° Northeast 307 353 11,000  Level Philadelphia TRACON
Thu 07:36:56 AM 39.6833 -75.6000 52° Northeast 307 353 11,000  Level Philadelphia TRACON
Thu 07:37:57 AM 39.7167 -75.4833 70° East 310 357 11,000 -236 Level Philadelphia TRACON
Thu 07:39:03 AM 39.7500 -75.3833 67° East 314 361 10,500 -455 Descending Philadelphia TRACON
Thu 07:40:09 AM 39.7833 -75.2667 70° East 298 343 10,000 -252 Descending Philadelphia TRACON
Thu 07:41:02 AM 39.8000 -75.1833 75° East 284 327 10,000  Level Philadelphia TRACON
Thu 07:41:57 AM 39.8333 -75.0833 67° East 284 327 10,000  Level Philadelphia TRACON
Thu 07:43:03 AM 39.8667 -74.9833 66° East 305 351 10,000  Level Philadelphia TRACON
Thu 07:43:57 AM 39.9167 -74.9000 52° Northeast 287 330 10,000 -556 Level Philadelphia TRACON
Thu 07:44:51 AM 39.9667 -74.8500 37° Northeast 269 310 9,000 -1,263 Descending Philadelphia TRACON
Thu 07:45:32 AM 40.0000 -74.8000 49° Northeast 261 300 8,000 -1,200 Descending New TRACON
Thu 07:46:26 AM 40.0333 -74.7333 57° Northeast 246 283 7,100 -526 Descending New TRACON
Thu 07:47:26 AM 40.0833 -74.6667 46° Northeast 250 288 7,000 -50 Descending New TRACON
Thu 07:48:26 AM 40.1333 -74.6000 46° Northeast 253 291 7,000  Level New TRACON
Thu 07:49:26 AM 40.2000 -74.6167 349° North 257 296 7,000  Level New TRACON
Thu 07:50:20 AM 40.2667 -74.6167 360° North 260 299 7,000  Level New TRACON
Thu 07:51:14 AM 40.3333 -74.6333 349° North 257 296 7,000  Level New TRACON
Thu 07:52:15 AM 40.4000 -74.6333 360° North 260 299 7,000 -50 Level New TRACON
Thu 07:53:15 AM 40.4667 -74.6500 349° North 234 269 6,900 -500 Descending New TRACON
Thu 07:54:15 AM 40.5333 -74.6500 360° North 225 259 6,000 -579 Descending New TRACON
Thu 07:55:09 AM 40.5167 -74.5833 108° East 229 264 5,800 -1,000 Descending New TRACON
Thu 07:56:09 AM 40.4667 -74.5500 153° Southeast 212 244 4,100 -1,316 Descending New TRACON
Thu 07:57:03 AM 40.4167 -74.5167 153° Southeast 210 242 3,300 -579 Descending New TRACON
Thu 07:58:03 AM 40.3833 -74.4667 131° Southeast 204 235 3,000 -150 Descending New TRACON
Thu 07:59:03 AM 40.3833 -74.4000 90° East 207 238 3,000  Level New TRACON
Thu 08:00:03 AM 40.4333 -74.3500 37° Northeast 209 241 3,000  Level New TRACON
Thu 08:00:58 AM 40.4667 -74.3000 49° Northeast 193 222 3,000  Level New TRACON
Thu 08:01:58 AM 40.5167 -74.2833 14° North 169 194 3,000 -100 Level New TRACON
Thu 08:02:58 AM 40.5500 -74.2500 37° Northeast 171 197 2,800 -550 Descending New TRACON
Thu 08:03:58 AM 40.6000 -74.2167 27° Northeast 171 197 1,900 -900 Descending New TRACON
Thu 08:04:58 AM 40.6333 -74.2000 21° North 136 157 1,000 -800 Descending New TRACON
Thu 08:05:58 AM 40.6667 -74.1833 21° North 119 137 300 -700 Descending New TRACON

Login

Don't have an account? Register now (free) for customized features, flight alerts, and more!